Cloud_Cover
0 1 5 5 5 0 0 0 0 0 0 0 0 0 0 0 8 90 85 72 98 100 100 100 100 100 100 19 20 99 44 96 73 95 99 100 99 100 94 100 100 100 100
5 5 64 5 0 0 0 0 0 0 0 0 0 0 0 5 30 12 100 100 100 100 100 100 100 100 100 64 97 90 20 19 88 99 100 100 100 100 100 100 100 100 100
8 3 4 0 0 0 0 0 0 0 0 0 0 0 1 4 7 100 100 100 100 100 100 100 100 100 100 100 100 100 98 56 81 85 100 100 100 100 100 100 100 100 100
53 9 0 0 0 0 0 0 0 0 0 0 0 0 0 65 100 100 100 100 100 100 100 100 100 96 61 92 100 100 87 100 97 98 100 100 100 100 100 100 100 100 100
5 0 0 0 0 0 0 0 0 0 0 0 0 0 31 100 100 66 100 100 100 100 100 100 100 44 31 100 90 100 100 99 75 100 100 100 100 100 100 100 100 100 100
0 0 0 0 0 0 0 0 0 0 0 1 5 7 100 99 100 100 100 100 100 100 100 100 100 100 99 100 97 100 96 94 100 100 100 100 100 100 100 100 100 100 100
5 0 0 0 0 0 0 0 0 26 58 100 5 52 91 95 100 100 100 100 99 100 100 100 100 100 89 96 100 98 88 93 31 35 92 100 100 100 100 100 100 100 100
3 0 0 0 0 0 0 0 0 51 100 100 4 15 44 100 100 100 100 100 100 100 100 100 100 95 100 100 100 100 100 83 47 69 100 99 100 100 100 100 100 100 100
0 0 0 0 0 0 7 5 2 27 100 100 5 62 94 100 100 100 100 100 100 100 100 100 100 100 94 100 100 100 100 99 99 100 96 98 100 60 100 100 100 100 100
0 0 0 0 0 0 5 5 5 0 1 6 11 100 92 90 100 100 100 100 100 100 100 100 100 100 100 99 74 84 100 100 99 100 100 100 100 100 100 100 100 95 98
0 3 0 0 0 0 0 5 4 4 5 3 75 84 99 100 100 100 100 100 100 99 100 100 100 100 100 96 99 59 98 100 100 100 100 100 100 100 100 100 100 100 92
0 0 0 0 4 5 5 5 5 5 16 38 82 95 100 100 100 100 100 100 100 100 100 100 100 100 100 100 100 100 99 100 100 100 100 100 100 100 100 100 100 100 100
28 19 0 0 5 2 4 5 5 32 34 100 55 85 100 100 100 100 100 100 100 100 100 100 100 100 100 100 100 100 100 100 100 100 100 100 100 100 100 100 100 100 100
25 90 0 0 2 5 4 4 46 42 34 88 100 100 100 100 100 100 100 100 87 98 100 100 100 100 100 100 100 100 100 100 100 97 99 100 100 100 100 100 100 100 20
68 100 0 0 5 3 5 2 8 5 33 25 97 74 99 100 100 100 100 100 99 100 100 100 100 100 100 100 100 100 100 100 100 100 87 100 100 100 97 100 86 7 4
27 93 17 0 5 1 3 5 81 77 100 100 100 84 28 94 100 100 100 100 100 99 100 100 100 100 100 100 100 100 100 100 91 88 92 39 32 78 100 55 5 0 0
0 0 0 0 0 0 0 0 100 100 100 100 100 100 92 100 100 100 100 100 100 92 100 100 100 100 100 100 100 84 37 33 15 63 86 100 100 99 8 5 0 0 0
0 12 0 0 0 5 0 3 5 93 100 80 93 76 98 100 100 100 100 100 100 100 99 97 96 74 87 43 42 100 48 26 27 30 22 4 5 5 5 0 0 0 5
0 0 0 0 0 0 4 5 5 1 9 19 78 78 100 100 100 100 100 100 100 100 100 100 99 98 69 52 44 87 94 55 100 96 9 19 6 0 0 0 0 7 42
0 0 0 0 0 0 0 0 5 4 3 5 8 59 93 100 100 100 98 100 100 38 43 51 61 87 91 44 69 100 100 34 13 4 0 0 0 0 1 2 3 5 5
5 1 2 0 0 0 0 0 0 0 4 5 5 17 99 5 5 20 20 13 30 74 61 59 96 100 72 70 57 32 65 8 0 0 0 0 0 0 0 0 0 0 0
100 24 5 5 1 0 0 0 0 0 0 0 0 13 99 2 5 5 5 5 5 5 33 6 5 3 8 0 0 0 0 0 0 0 0 0 0 0 0 0 0 0 0
100 100 98 36 5 5 1 0 0 2 0 0 0 0 2 0 0 0 0 0 0 0 0 0 0 0 0 0 0 0 0 0 0 0 0 0 0 0 0 0 1 2 4
100 100 100 100 100 99 93 25 4 27 9 4 0 0 0 0 0 0 0 0 0 0 0 0 0 0 0 0 0 0 0 0 0 0 0 0 5 9 0 0 4 5 8
100 100 100 100 100 100 100 100 84 11 5 5 5 4 1 1 5 5 5 5 5 5 1 0 0 0 0 0 0 0 0 0 20 4 5 5 5 5 5 5 9 92 100
100 100 100 100 100 100 100 100 100 100 100 100 87 57 30 14 12 27 9 5 5 5 5 5 5 11 15 13 3 4 4 18 35 46 11 2 3 3 5 5 9 41 21